owner,sensor,date,latitude,longitude,dew_point_temperature,qcFlag 
ADCP,ioos:station:NOAA.NDBC:WDEL1:1,2010-03-01T00:30:00Z,28.6620,-89.5510,4.6,11111222 
ADCP,ioos:station:NOAA.NDBC:WDEL1:1,2010-03-01T01:30:00Z,28.6620,-89.5510,4.9,11111222 
ADCP,ioos:station:NOAA.NDBC:WDEL1:1,2010-03-01T02:30:00Z,28.6620,-89.5510,5.9,11111222 
ADCP,ioos:station:NOAA.NDBC:WDEL1:1,2010-03-01T03:30:00Z,28.6620,-89.5510,6.3,11111222 
ADCP,ioos:station:NOAA.NDBC:WDEL1:1,2010-03-01T04:30:00Z,28.6620,-89.5510,5.2,11111222 
ADCP,ioos:station:NOAA.NDBC:WDEL1:1,2010-03-01T05:30:00Z,28.6620,-89.5510,6.2,11111222 
ADCP,ioos:station:NOAA.NDBC:WDEL1:1,2010-03-01T06:30:00Z,28.6620,-89.5510,6.0,11111222 
ADCP,ioos:station:NOAA.NDBC:WDEL1:1,2010-03-01T07:30:00Z,28.6620,-89.5510,6.7,11111222 
ADCP,ioos:station:NOAA.NDBC:WDEL1:1,2010-03-01T08:30:00Z,28.6620,-89.5510,7.5,11111222 
ADCP,ioos:station:NOAA.NDBC:WDEL1:1,2010-03-01T09:30:00Z,28.6620,-89.5510,7.9,11111222 
ADCP,ioos:station:NOAA.NDBC:WDEL1:1,2010-03-01T10:30:00Z,28.6620,-89.5510,7.7,11111222 
ADCP,ioos:station:NOAA.NDBC:WDEL1:1,2010-03-01T11:30:00Z,28.6620,-89.5510,8.1,11111222 
ADCP,ioos:station:NOAA.NDBC:WDEL1:1,2010-03-01T12:30:00Z,28.6620,-89.5510,9.4,11111222 
ADCP,ioos:station:NOAA.NDBC:WDEL1:1,2010-03-01T13:30:00Z,28.6620,-89.5510,10.3,11111222 
ADCP,ioos:station:NOAA.NDBC:WDEL1:1,2010-03-01T14:30:00Z,28.6620,-89.5510,10.8,11111222 
ADCP,ioos:station:NOAA.NDBC:WDEL1:1,2010-03-01T15:30:00Z,28.6620,-89.5510,11.0,11111222 
ADCP,ioos:station:NOAA.NDBC:WDEL1:1,2010-03-01T16:30:00Z,28.6620,-89.5510,10.5,11111222 
ADCP,ioos:station:NOAA.NDBC:WDEL1:1,2010-03-01T17:30:00Z,28.6620,-89.5510,11.0,11111222 
ADCP,ioos:station:NOAA.NDBC:WDEL1:1,2010-03-01T18:30:00Z,28.6620,-89.5510,12.0,11111222 
ADCP,ioos:station:NOAA.NDBC:WDEL1:1,2010-03-01T19:30:00Z,28.6620,-89.5510,12.7,11111222 
ADCP,ioos:station:NOAA.NDBC:WDEL1:1,2010-03-01T20:30:00Z,28.6620,-89.5510,13.7,11111222 
ADCP,ioos:station:NOAA.NDBC:WDEL1:1,2010-03-01T21:30:00Z,28.6620,-89.5510,14.5,11111222 
ADCP,ioos:station:NOAA.NDBC:WDEL1:1,2010-03-01T22:30:00Z,28.6620,-89.5510,15.3,11111222 
ADCP,ioos:station:NOAA.NDBC:WDEL1:1,2010-03-01T23:30:00Z,28.6620,-89.5510,16.1,11111222 
ADCP,ioos:station:NOAA.NDBC:WDEL1:1,2010-03-02T00:30:00Z,28.6620,-89.5510,15.0,11111222 
ADCP,ioos:station:NOAA.NDBC:WDEL1:1,2010-03-02T01:30:00Z,28.6620,-89.5510,15.2,11111222 
ADCP,ioos:station:NOAA.NDBC:WDEL1:1,2010-03-02T02:30:00Z,28.6620,-89.5510,11.0,11111222 
ADCP,ioos:station:NOAA.NDBC:WDEL1:1,2010-03-02T03:30:00Z,28.6620,-89.5510,10.5,11111222 
ADCP,ioos:station:NOAA.NDBC:WDEL1:1,2010-03-02T04:30:00Z,28.6620,-89.5510,10.7,11111222 
ADCP,ioos:station:NOAA.NDBC:WDEL1:1,2010-03-02T05:30:00Z,28.6620,-89.5510,10.6,11111222 
ADCP,ioos:station:NOAA.NDBC:WDEL1:1,2010-03-02T06:30:00Z,28.6620,-89.5510,11.0,11111222 
ADCP,ioos:station:NOAA.NDBC:WDEL1:1,2010-03-02T07:30:00Z,28.6620,-89.5510,10.7,11111222 
ADCP,ioos:station:NOAA.NDBC:WDEL1:1,2010-03-02T08:30:00Z,28.6620,-89.5510,9.3,11111222 
ADCP,ioos:station:NOAA.NDBC:WDEL1:1,2010-03-02T09:30:00Z,28.6620,-89.5510,8.5,11111222 
ADCP,ioos:station:NOAA.NDBC:WDEL1:1,2010-03-02T10:30:00Z,28.6620,-89.5510,8.0,11111222 
ADCP,ioos:station:NOAA.NDBC:WDEL1:1,2010-03-02T11:30:00Z,28.6620,-89.5510,7.1,11111222 
ADCP,ioos:station:NOAA.NDBC:WDEL1:1,2010-03-02T12:30:00Z,28.6620,-89.5510,6.3,11111222 
ADCP,ioos:station:NOAA.NDBC:WDEL1:1,2010-03-02T13:30:00Z,28.6620,-89.5510,5.0,11111222 
ADCP,ioos:station:NOAA.NDBC:WDEL1:1,2010-03-02T14:30:00Z,28.6620,-89.5510,4.5,11111222 
ADCP,ioos:station:NOAA.NDBC:WDEL1:1,2010-03-02T15:30:00Z,28.6620,-89.5510,4.0,11111222 
ADCP,ioos:station:NOAA.NDBC:WDEL1:1,2010-03-02T16:30:00Z,28.6620,-89.5510,3.4,11111222 
ADCP,ioos:station:NOAA.NDBC:WDEL1:1,2010-03-02T17:30:00Z,28.6620,-89.5510,3.2,11111222 
ADCP,ioos:station:NOAA.NDBC:WDEL1:1,2010-03-02T18:30:00Z,28.6620,-89.5510,3.4,11111222 
ADCP,ioos:station:NOAA.NDBC:WDEL1:1,2010-03-02T19:30:00Z,28.6620,-89.5510,2.7,11111222 
ADCP,ioos:station:NOAA.NDBC:WDEL1:1,2010-03-02T20:30:00Z,28.6620,-89.5510,3.3,11111222 
ADCP,ioos:station:NOAA.NDBC:WDEL1:1,2010-03-02T21:30:00Z,28.6620,-89.5510,1.9,11111222 
ADCP,ioos:station:NOAA.NDBC:WDEL1:1,2010-03-02T22:30:00Z,28.6620,-89.5510,3.3,11111222 
ADCP,ioos:station:NOAA.NDBC:WDEL1:1,2010-03-02T23:30:00Z,28.6620,-89.5510,1.5,11111222 
ADCP,ioos:station:NOAA.NDBC:WDEL1:1,2010-03-03T00:30:00Z,28.6620,-89.5510,1.7,11111222 
ADCP,ioos:station:NOAA.NDBC:WDEL1:1,2010-03-03T01:30:00Z,28.6620,-89.5510,1.8,11111222 
ADCP,ioos:station:NOAA.NDBC:WDEL1:1,2010-03-03T02:30:00Z,28.6620,-89.5510,1.2,11111222 
ADCP,ioos:station:NOAA.NDBC:WDEL1:1,2010-03-03T03:30:00Z,28.6620,-89.5510,1.4,11111222 
ADCP,ioos:station:NOAA.NDBC:WDEL1:1,2010-03-03T04:30:00Z,28.6620,-89.5510,1.1,11111222 
ADCP,ioos:station:NOAA.NDBC:WDEL1:1,2010-03-03T05:30:00Z,28.6620,-89.5510,0.3,11111222 
ADCP,ioos:station:NOAA.NDBC:WDEL1:1,2010-03-03T06:30:00Z,28.6620,-89.5510,0.6,11111222 
ADCP,ioos:station:NOAA.NDBC:WDEL1:1,2010-03-03T07:30:00Z,28.6620,-89.5510,-0.4,11144222 
ADCP,ioos:station:NOAA.NDBC:WDEL1:1,2010-03-03T08:30:00Z,28.6620,-89.5510,0.9,11111222 
ADCP,ioos:station:NOAA.NDBC:WDEL1:1,2010-03-03T09:30:00Z,28.6620,-89.5510,0.5,11111222 
ADCP,ioos:station:NOAA.NDBC:WDEL1:1,2010-03-03T10:30:00Z,28.6620,-89.5510,0.1,11111222 
ADCP,ioos:station:NOAA.NDBC:WDEL1:1,2010-03-03T11:30:00Z,28.6620,-89.5510,0.3,11111222 
ADCP,ioos:station:NOAA.NDBC:WDEL1:1,2010-03-03T12:30:00Z,28.6620,-89.5510,-0.3,11144222 
ADCP,ioos:station:NOAA.NDBC:WDEL1:1,2010-03-03T13:30:00Z,28.6620,-89.5510,0.5,11111222 
ADCP,ioos:station:NOAA.NDBC:WDEL1:1,2010-03-03T14:30:00Z,28.6620,-89.5510,0.0,11111222 
ADCP,ioos:station:NOAA.NDBC:WDEL1:1,2010-03-03T15:30:00Z,28.6620,-89.5510,0.7,11111222 
ADCP,ioos:station:NOAA.NDBC:WDEL1:1,2010-03-03T16:30:00Z,28.6620,-89.5510,0.4,11111222 
ADCP,ioos:station:NOAA.NDBC:WDEL1:1,2010-03-03T17:30:00Z,28.6620,-89.5510,-0.5,11144222 
ADCP,ioos:station:NOAA.NDBC:WDEL1:1,2010-03-03T18:30:00Z,28.6620,-89.5510,0.4,11111222 
ADCP,ioos:station:NOAA.NDBC:WDEL1:1,2010-03-03T19:30:00Z,28.6620,-89.5510,0.0,11111222 
ADCP,ioos:station:NOAA.NDBC:WDEL1:1,2010-03-03T20:30:00Z,28.6620,-89.5510,1.2,11111222 
ADCP,ioos:station:NOAA.NDBC:WDEL1:1,2010-03-03T21:30:00Z,28.6620,-89.5510,1.1,11111222 
ADCP,ioos:station:NOAA.NDBC:WDEL1:1,2010-03-03T22:30:00Z,28.6620,-89.5510,1.8,11111222 
ADCP,ioos:station:NOAA.NDBC:WDEL1:1,2010-03-03T23:30:00Z,28.6620,-89.5510,2.0,11111222 
ADCP,ioos:station:NOAA.NDBC:WDEL1:1,2010-03-04T00:30:00Z,28.6620,-89.5510,3.1,11111222 
ADCP,ioos:station:NOAA.NDBC:WDEL1:1,2010-03-04T01:30:00Z,28.6620,-89.5510,3.3,11111222 
ADCP,ioos:station:NOAA.NDBC:WDEL1:1,2010-03-04T02:30:00Z,28.6620,-89.5510,3.7,11111222 
ADCP,ioos:station:NOAA.NDBC:WDEL1:1,2010-03-04T03:30:00Z,28.6620,-89.5510,3.5,11111222 
ADCP,ioos:station:NOAA.NDBC:WDEL1:1,2010-03-04T04:30:00Z,28.6620,-89.5510,3.9,11111222 
ADCP,ioos:station:NOAA.NDBC:WDEL1:1,2010-03-04T05:30:00Z,28.6620,-89.5510,1.8,11111222 
ADCP,ioos:station:NOAA.NDBC:WDEL1:1,2010-03-04T06:30:00Z,28.6620,-89.5510,3.2,11111222 
ADCP,ioos:station:NOAA.NDBC:WDEL1:1,2010-03-04T07:30:00Z,28.6620,-89.5510,0.0,11111222 
ADCP,ioos:station:NOAA.NDBC:WDEL1:1,2010-03-04T08:30:00Z,28.6620,-89.5510,0.0,11111222 
ADCP,ioos:station:NOAA.NDBC:WDEL1:1,2010-03-04T09:30:00Z,28.6620,-89.5510,1.7,11111222 
ADCP,ioos:station:NOAA.NDBC:WDEL1:1,2010-03-04T10:30:00Z,28.6620,-89.5510,1.8,11111222 
ADCP,ioos:station:NOAA.NDBC:WDEL1:1,2010-03-04T11:30:00Z,28.6620,-89.5510,0.5,11111222 
ADCP,ioos:station:NOAA.NDBC:WDEL1:1,2010-03-04T12:30:00Z,28.6620,-89.5510,0.7,11111222 
ADCP,ioos:station:NOAA.NDBC:WDEL1:1,2010-03-04T13:30:00Z,28.6620,-89.5510,0.0,11111222 
ADCP,ioos:station:NOAA.NDBC:WDEL1:1,2010-03-04T14:30:00Z,28.6620,-89.5510,-0.6,11144222 
ADCP,ioos:station:NOAA.NDBC:WDEL1:1,2010-03-04T15:30:00Z,28.6620,-89.5510,-0.4,11144222 
ADCP,ioos:station:NOAA.NDBC:WDEL1:1,2010-03-04T16:30:00Z,28.6620,-89.5510,-0.8,11144222 
ADCP,ioos:station:NOAA.NDBC:WDEL1:1,2010-03-04T17:30:00Z,28.6620,-89.5510,-0.6,11144222 
ADCP,ioos:station:NOAA.NDBC:WDEL1:1,2010-03-04T18:30:00Z,28.6620,-89.5510,-0.5,11144222 
ADCP,ioos:station:NOAA.NDBC:WDEL1:1,2010-03-04T19:30:00Z,28.6620,-89.5510,0.8,11111222 
ADCP,ioos:station:NOAA.NDBC:WDEL1:1,2010-03-04T20:30:00Z,28.6620,-89.5510,0.2,11111222 
ADCP,ioos:station:NOAA.NDBC:WDEL1:1,2010-03-04T21:30:00Z,28.6620,-89.5510,0.6,11111222 
ADCP,ioos:station:NOAA.NDBC:WDEL1:1,2010-03-04T22:30:00Z,28.6620,-89.5510,0.3,11111222 
ADCP,ioos:station:NOAA.NDBC:WDEL1:1,2010-03-04T23:30:00Z,28.6620,-89.5510,0.7,11111222 
ADCP,ioos:station:NOAA.NDBC:WDEL1:1,2010-03-05T00:30:00Z,28.6620,-89.5510,0.2,11111222 
ADCP,ioos:station:NOAA.NDBC:WDEL1:1,2010-03-05T01:30:00Z,28.6620,-89.5510,-2.2,11144222 
ADCP,ioos:station:NOAA.NDBC:WDEL1:1,2010-03-05T02:30:00Z,28.6620,-89.5510,-1.3,11144222 
ADCP,ioos:station:NOAA.NDBC:WDEL1:1,2010-03-05T03:30:00Z,28.6620,-89.5510,-1.5,11144222 
ADCP,ioos:station:NOAA.NDBC:WDEL1:1,2010-03-05T04:30:00Z,28.6620,-89.5510,-1.0,11144222 
ADCP,ioos:station:NOAA.NDBC:WDEL1:1,2010-03-05T05:30:00Z,28.6620,-89.5510,-0.6,11144222 
ADCP,ioos:station:NOAA.NDBC:WDEL1:1,2010-03-05T06:30:00Z,28.6620,-89.5510,1.1,11111222 
ADCP,ioos:station:NOAA.NDBC:WDEL1:1,2010-03-05T07:30:00Z,28.6620,-89.5510,1.7,11111222 
ADCP,ioos:station:NOAA.NDBC:WDEL1:1,2010-03-05T08:30:00Z,28.6620,-89.5510,3.2,11111222 
ADCP,ioos:station:NOAA.NDBC:WDEL1:1,2010-03-05T09:30:00Z,28.6620,-89.5510,3.9,11111222 
ADCP,ioos:station:NOAA.NDBC:WDEL1:1,2010-03-05T10:30:00Z,28.6620,-89.5510,4.7,11111222 
ADCP,ioos:station:NOAA.NDBC:WDEL1:1,2010-03-05T11:30:00Z,28.6620,-89.5510,4.7,11111222 
ADCP,ioos:station:NOAA.NDBC:WDEL1:1,2010-03-05T12:30:00Z,28.6620,-89.5510,5.5,11111222 
ADCP,ioos:station:NOAA.NDBC:WDEL1:1,2010-03-05T13:30:00Z,28.6620,-89.5510,5.5,11111222 
ADCP,ioos:station:NOAA.NDBC:WDEL1:1,2010-03-05T14:30:00Z,28.6620,-89.5510,5.1,11111222 
ADCP,ioos:station:NOAA.NDBC:WDEL1:1,2010-03-05T15:30:00Z,28.6620,-89.5510,6.0,11111222 
ADCP,ioos:station:NOAA.NDBC:WDEL1:1,2010-03-05T16:30:00Z,28.6620,-89.5510,4.8,11111222 
ADCP,ioos:station:NOAA.NDBC:WDEL1:1,2010-03-05T17:30:00Z,28.6620,-89.5510,6.1,11111222 
ADCP,ioos:station:NOAA.NDBC:WDEL1:1,2010-03-05T18:30:00Z,28.6620,-89.5510,7.1,11111222 
ADCP,ioos:station:NOAA.NDBC:WDEL1:1,2010-03-05T19:30:00Z,28.6620,-89.5510,4.9,11111222 
ADCP,ioos:station:NOAA.NDBC:WDEL1:1,2010-03-05T20:30:00Z,28.6620,-89.5510,0.5,11111222 
ADCP,ioos:station:NOAA.NDBC:WDEL1:1,2010-03-05T21:30:00Z,28.6620,-89.5510,0.5,11111222 
ADCP,ioos:station:NOAA.NDBC:WDEL1:1,2010-03-05T22:30:00Z,28.6620,-89.5510,3.0,11111222 
ADCP,ioos:station:NOAA.NDBC:WDEL1:1,2010-03-05T23:30:00Z,28.6620,-89.5510,0.4,11111222 
ADCP,ioos:station:NOAA.NDBC:WDEL1:1,2010-03-06T00:30:00Z,28.6620,-89.5510,1.2,11111222 
ADCP,ioos:station:NOAA.NDBC:WDEL1:1,2010-03-06T01:30:00Z,28.6620,-89.5510,2.9,11111222 
ADCP,ioos:station:NOAA.NDBC:WDEL1:1,2010-03-06T02:30:00Z,28.6620,-89.5510,-0.1,11144222 
ADCP,ioos:station:NOAA.NDBC:WDEL1:1,2010-03-06T03:30:00Z,28.6620,-89.5510,-1.2,11144222 
ADCP,ioos:station:NOAA.NDBC:WDEL1:1,2010-03-06T04:30:00Z,28.6620,-89.5510,4.5,11111222 
ADCP,ioos:station:NOAA.NDBC:WDEL1:1,2010-03-06T05:30:00Z,28.6620,-89.5510,3.8,11111222 
ADCP,ioos:station:NOAA.NDBC:WDEL1:1,2010-03-06T06:30:00Z,28.6620,-89.5510,2.9,11111222 
ADCP,ioos:station:NOAA.NDBC:WDEL1:1,2010-03-06T07:30:00Z,28.6620,-89.5510,1.5,11111222 
ADCP,ioos:station:NOAA.NDBC:WDEL1:1,2010-03-06T08:30:00Z,28.6620,-89.5510,-0.1,11144222 
ADCP,ioos:station:NOAA.NDBC:WDEL1:1,2010-03-06T09:30:00Z,28.6620,-89.5510,0.4,11111222 
ADCP,ioos:station:NOAA.NDBC:WDEL1:1,2010-03-06T10:30:00Z,28.6620,-89.5510,-0.7,11144222 
ADCP,ioos:station:NOAA.NDBC:WDEL1:1,2010-03-06T11:30:00Z,28.6620,-89.5510,-0.7,11144222 
ADCP,ioos:station:NOAA.NDBC:WDEL1:1,2010-03-06T12:30:00Z,28.6620,-89.5510,-0.9,11144222 
ADCP,ioos:station:NOAA.NDBC:WDEL1:1,2010-03-06T13:30:00Z,28.6620,-89.5510,0.0,11111222 
ADCP,ioos:station:NOAA.NDBC:WDEL1:1,2010-03-06T14:30:00Z,28.6620,-89.5510,0.1,11111222 
ADCP,ioos:station:NOAA.NDBC:WDEL1:1,2010-03-06T15:30:00Z,28.6620,-89.5510,2.9,11111222 
ADCP,ioos:station:NOAA.NDBC:WDEL1:1,2010-03-06T16:30:00Z,28.6620,-89.5510,7.0,11111222 
ADCP,ioos:station:NOAA.NDBC:WDEL1:1,2010-03-06T17:30:00Z,28.6620,-89.5510,6.2,11111222 
ADCP,ioos:station:NOAA.NDBC:WDEL1:1,2010-03-06T18:30:00Z,28.6620,-89.5510,4.3,11111222 
ADCP,ioos:station:NOAA.NDBC:WDEL1:1,2010-03-06T19:30:00Z,28.6620,-89.5510,3.7,11111222 
ADCP,ioos:station:NOAA.NDBC:WDEL1:1,2010-03-06T20:30:00Z,28.6620,-89.5510,4.0,11111222 
ADCP,ioos:station:NOAA.NDBC:WDEL1:1,2010-03-06T21:30:00Z,28.6620,-89.5510,3.8,11111222 
ADCP,ioos:station:NOAA.NDBC:WDEL1:1,2010-03-06T22:30:00Z,28.6620,-89.5510,3.1,11111222 
ADCP,ioos:station:NOAA.NDBC:WDEL1:1,2010-03-06T23:30:00Z,28.6620,-89.5510,2.7,11111222 
ADCP,ioos:station:NOAA.NDBC:WDEL1:1,2010-03-07T00:30:00Z,28.6620,-89.5510,2.7,11111222 
ADCP,ioos:station:NOAA.NDBC:WDEL1:1,2010-03-07T01:30:00Z,28.6620,-89.5510,3.6,11111222 
ADCP,ioos:station:NOAA.NDBC:WDEL1:1,2010-03-07T02:30:00Z,28.6620,-89.5510,2.8,11111222 
ADCP,ioos:station:NOAA.NDBC:WDEL1:1,2010-03-07T03:30:00Z,28.6620,-89.5510,3.1,11111222 
ADCP,ioos:station:NOAA.NDBC:WDEL1:1,2010-03-07T04:30:00Z,28.6620,-89.5510,2.2,11111222 
ADCP,ioos:station:NOAA.NDBC:WDEL1:1,2010-03-07T05:30:00Z,28.6620,-89.5510,2.1,11111222 
ADCP,ioos:station:NOAA.NDBC:WDEL1:1,2010-03-07T06:30:00Z,28.6620,-89.5510,1.3,11111222 
ADCP,ioos:station:NOAA.NDBC:WDEL1:1,2010-03-07T07:30:00Z,28.6620,-89.5510,1.7,11111222 
ADCP,ioos:station:NOAA.NDBC:WDEL1:1,2010-03-07T08:30:00Z,28.6620,-89.5510,6.0,11111222 
ADCP,ioos:station:NOAA.NDBC:WDEL1:1,2010-03-07T09:30:00Z,28.6620,-89.5510,5.6,11111222 
ADCP,ioos:station:NOAA.NDBC:WDEL1:1,2010-03-07T10:30:00Z,28.6620,-89.5510,5.5,11111222 
ADCP,ioos:station:NOAA.NDBC:WDEL1:1,2010-03-07T11:30:00Z,28.6620,-89.5510,5.1,11111222 
ADCP,ioos:station:NOAA.NDBC:WDEL1:1,2010-03-07T12:30:00Z,28.6620,-89.5510,5.9,11111222 
ADCP,ioos:station:NOAA.NDBC:WDEL1:1,2010-03-07T13:30:00Z,28.6620,-89.5510,6.0,11111222 
ADCP,ioos:station:NOAA.NDBC:WDEL1:1,2010-03-07T14:30:00Z,28.6620,-89.5510,5.5,11111222 
ADCP,ioos:station:NOAA.NDBC:WDEL1:1,2010-03-07T15:30:00Z,28.6620,-89.5510,5.1,11111222 
ADCP,ioos:station:NOAA.NDBC:WDEL1:1,2010-03-07T16:30:00Z,28.6620,-89.5510,4.7,11111222 
ADCP,ioos:station:NOAA.NDBC:WDEL1:1,2010-03-07T17:30:00Z,28.6620,-89.5510,3.9,11111222 
ADCP,ioos:station:NOAA.NDBC:WDEL1:1,2010-03-07T18:30:00Z,28.6620,-89.5510,6.1,11111222 
ADCP,ioos:station:NOAA.NDBC:WDEL1:1,2010-03-07T19:30:00Z,28.6620,-89.5510,5.6,11111222 
ADCP,ioos:station:NOAA.NDBC:WDEL1:1,2010-03-07T20:30:00Z,28.6620,-89.5510,5.2,11111222 
ADCP,ioos:station:NOAA.NDBC:WDEL1:1,2010-03-07T21:30:00Z,28.6620,-89.5510,5.2,11111222 
ADCP,ioos:station:NOAA.NDBC:WDEL1:1,2010-03-07T22:30:00Z,28.6620,-89.5510,6.0,11111222 
ADCP,ioos:station:NOAA.NDBC:WDEL1:1,2010-03-07T23:30:00Z,28.6620,-89.5510,6.4,11111222 
ADCP,ioos:station:NOAA.NDBC:WDEL1:1,2010-03-08T00:30:00Z,28.6620,-89.5510,5.4,11111222 
ADCP,ioos:station:NOAA.NDBC:WDEL1:1,2010-03-08T01:30:00Z,28.6620,-89.5510,6.8,11111222 
ADCP,ioos:station:NOAA.NDBC:WDEL1:1,2010-03-08T02:30:00Z,28.6620,-89.5510,6.5,11111222 
ADCP,ioos:station:NOAA.NDBC:WDEL1:1,2010-03-08T03:30:00Z,28.6620,-89.5510,5.9,11111222 
ADCP,ioos:station:NOAA.NDBC:WDEL1:1,2010-03-08T04:30:00Z,28.6620,-89.5510,7.5,11111222 
ADCP,ioos:station:NOAA.NDBC:WDEL1:1,2010-03-08T05:30:00Z,28.6620,-89.5510,8.3,11111222 
ADCP,ioos:station:NOAA.NDBC:WDEL1:1,2010-03-08T06:30:00Z,28.6620,-89.5510,7.8,11111222 
ADCP,ioos:station:NOAA.NDBC:WDEL1:1,2010-03-08T07:30:00Z,28.6620,-89.5510,7.9,11111222 
ADCP,ioos:station:NOAA.NDBC:WDEL1:1,2010-03-08T08:30:00Z,28.6620,-89.5510,8.3,11111222 
ADCP,ioos:station:NOAA.NDBC:WDEL1:1,2010-03-08T09:30:00Z,28.6620,-89.5510,8.0,11111222 
ADCP,ioos:station:NOAA.NDBC:WDEL1:1,2010-03-08T10:30:00Z,28.6620,-89.5510,8.3,11111222 
ADCP,ioos:station:NOAA.NDBC:WDEL1:1,2010-03-08T11:30:00Z,28.6620,-89.5510,9.9,11111222 
ADCP,ioos:station:NOAA.NDBC:WDEL1:1,2010-03-08T12:30:00Z,28.6620,-89.5510,9.8,11111222 
ADCP,ioos:station:NOAA.NDBC:WDEL1:1,2010-03-08T13:30:00Z,28.6620,-89.5510,10.1,11111222 
ADCP,ioos:station:NOAA.NDBC:WDEL1:1,2010-03-08T14:30:00Z,28.6620,-89.5510,9.3,11111222 
ADCP,ioos:station:NOAA.NDBC:WDEL1:1,2010-03-08T15:30:00Z,28.6620,-89.5510,9.7,11111222 
ADCP,ioos:station:NOAA.NDBC:WDEL1:1,2010-03-08T16:30:00Z,28.6620,-89.5510,9.9,11111222 
ADCP,ioos:station:NOAA.NDBC:WDEL1:1,2010-03-08T17:30:00Z,28.6620,-89.5510,10.1,11111222 
ADCP,ioos:station:NOAA.NDBC:WDEL1:1,2010-03-08T18:30:00Z,28.6620,-89.5510,11.0,11111222 
ADCP,ioos:station:NOAA.NDBC:WDEL1:1,2010-03-08T19:30:00Z,28.6620,-89.5510,11.3,11111222 
ADCP,ioos:station:NOAA.NDBC:WDEL1:1,2010-03-08T20:30:00Z,28.6620,-89.5510,11.1,11111222 
ADCP,ioos:station:NOAA.NDBC:WDEL1:1,2010-03-08T21:30:00Z,28.6620,-89.5510,11.9,11111222 
ADCP,ioos:station:NOAA.NDBC:WDEL1:1,2010-03-08T22:30:00Z,28.6620,-89.5510,11.9,11111222 
ADCP,ioos:station:NOAA.NDBC:WDEL1:1,2010-03-08T23:30:00Z,28.6620,-89.5510,12.1,11111222 
ADCP,ioos:station:NOAA.NDBC:WDEL1:1,2010-03-09T00:30:00Z,28.6620,-89.5510,12.1,11111222 
ADCP,ioos:station:NOAA.NDBC:WDEL1:1,2010-03-09T01:30:00Z,28.6620,-89.5510,12.0,11111222 
ADCP,ioos:station:NOAA.NDBC:WDEL1:1,2010-03-09T02:30:00Z,28.6620,-89.5510,12.5,11111222 
ADCP,ioos:station:NOAA.NDBC:WDEL1:1,2010-03-09T03:30:00Z,28.6620,-89.5510,12.3,11111222 
ADCP,ioos:station:NOAA.NDBC:WDEL1:1,2010-03-09T04:30:00Z,28.6620,-89.5510,12.6,11111222 
ADCP,ioos:station:NOAA.NDBC:WDEL1:1,2010-03-09T05:30:00Z,28.6620,-89.5510,12.4,11111222 
ADCP,ioos:station:NOAA.NDBC:WDEL1:1,2010-03-09T06:30:00Z,28.6620,-89.5510,12.6,11111222 
ADCP,ioos:station:NOAA.NDBC:WDEL1:1,2010-03-09T07:30:00Z,28.6620,-89.5510,13.3,11111222 
ADCP,ioos:station:NOAA.NDBC:WDEL1:1,2010-03-09T08:30:00Z,28.6620,-89.5510,14.2,11111222 
ADCP,ioos:station:NOAA.NDBC:WDEL1:1,2010-03-09T09:30:00Z,28.6620,-89.5510,14.7,11111222 
ADCP,ioos:station:NOAA.NDBC:WDEL1:1,2010-03-09T10:30:00Z,28.6620,-89.5510,15.1,11111222 
ADCP,ioos:station:NOAA.NDBC:WDEL1:1,2010-03-09T11:30:00Z,28.6620,-89.5510,15.4,11111222 
ADCP,ioos:station:NOAA.NDBC:WDEL1:1,2010-03-09T12:30:00Z,28.6620,-89.5510,15.2,11111222 
ADCP,ioos:station:NOAA.NDBC:WDEL1:1,2010-03-09T13:30:00Z,28.6620,-89.5510,15.3,11111222 
ADCP,ioos:station:NOAA.NDBC:WDEL1:1,2010-03-09T14:30:00Z,28.6620,-89.5510,15.7,11111222 
ADCP,ioos:station:NOAA.NDBC:WDEL1:1,2010-03-09T15:30:00Z,28.6620,-89.5510,15.9,11111222 
ADCP,ioos:station:NOAA.NDBC:WDEL1:1,2010-03-09T16:30:00Z,28.6620,-89.5510,16.0,11111222 
ADCP,ioos:station:NOAA.NDBC:WDEL1:1,2010-03-09T17:30:00Z,28.6620,-89.5510,16.0,11111222 
ADCP,ioos:station:NOAA.NDBC:WDEL1:1,2010-03-09T18:30:00Z,28.6620,-89.5510,16.0,11111222 
ADCP,ioos:station:NOAA.NDBC:WDEL1:1,2010-03-09T19:30:00Z,28.6620,-89.5510,16.4,11111222 
ADCP,ioos:station:NOAA.NDBC:WDEL1:1,2010-03-09T20:30:00Z,28.6620,-89.5510,16.6,11111222 
ADCP,ioos:station:NOAA.NDBC:WDEL1:1,2010-03-09T21:30:00Z,28.6620,-89.5510,16.7,11111222 
ADCP,ioos:station:NOAA.NDBC:WDEL1:1,2010-03-09T22:30:00Z,28.6620,-89.5510,16.8,11111222 
ADCP,ioos:station:NOAA.NDBC:WDEL1:1,2010-03-09T23:30:00Z,28.6620,-89.5510,17.0,11111222 
ADCP,ioos:station:NOAA.NDBC:WDEL1:1,2010-03-10T00:30:00Z,28.6620,-89.5510,17.0,11111222 
ADCP,ioos:station:NOAA.NDBC:WDEL1:1,2010-03-10T01:30:00Z,28.6620,-89.5510,17.2,11111222 
ADCP,ioos:station:NOAA.NDBC:WDEL1:1,2010-03-10T02:30:00Z,28.6620,-89.5510,17.0,11111222 
ADCP,ioos:station:NOAA.NDBC:WDEL1:1,2010-03-10T03:30:00Z,28.6620,-89.5510,17.1,11111222 
ADCP,ioos:station:NOAA.NDBC:WDEL1:1,2010-03-10T04:30:00Z,28.6620,-89.5510,17.2,11111222 
ADCP,ioos:station:NOAA.NDBC:WDEL1:1,2010-03-10T05:30:00Z,28.6620,-89.5510,17.3,11111222 
ADCP,ioos:station:NOAA.NDBC:WDEL1:1,2010-03-10T06:30:00Z,28.6620,-89.5510,17.4,11111222 
ADCP,ioos:station:NOAA.NDBC:WDEL1:1,2010-03-10T07:30:00Z,28.6620,-89.5510,17.4,11111222 
ADCP,ioos:station:NOAA.NDBC:WDEL1:1,2010-03-10T08:30:00Z,28.6620,-89.5510,17.5,11111222 
ADCP,ioos:station:NOAA.NDBC:WDEL1:1,2010-03-10T09:30:00Z,28.6620,-89.5510,17.3,11111222 
ADCP,ioos:station:NOAA.NDBC:WDEL1:1,2010-03-10T10:30:00Z,28.6620,-89.5510,17.4,11111222 
ADCP,ioos:station:NOAA.NDBC:WDEL1:1,2010-03-10T11:30:00Z,28.6620,-89.5510,17.6,11111222 
ADCP,ioos:station:NOAA.NDBC:WDEL1:1,2010-03-10T12:30:00Z,28.6620,-89.5510,17.6,11111222 
ADCP,ioos:station:NOAA.NDBC:WDEL1:1,2010-03-10T13:30:00Z,28.6620,-89.5510,17.5,11111222 
ADCP,ioos:station:NOAA.NDBC:WDEL1:1,2010-03-10T14:30:00Z,28.6620,-89.5510,17.6,11111222 
ADCP,ioos:station:NOAA.NDBC:WDEL1:1,2010-03-10T15:30:00Z,28.6620,-89.5510,17.8,11111222 
ADCP,ioos:station:NOAA.NDBC:WDEL1:1,2010-03-10T16:30:00Z,28.6620,-89.5510,17.9,11111222 
ADCP,ioos:station:NOAA.NDBC:WDEL1:1,2010-03-10T17:30:00Z,28.6620,-89.5510,17.8,11111222 
ADCP,ioos:station:NOAA.NDBC:WDEL1:1,2010-03-10T18:30:00Z,28.6620,-89.5510,17.5,11111222 
ADCP,ioos:station:NOAA.NDBC:WDEL1:1,2010-03-10T19:30:00Z,28.6620,-89.5510,17.4,11111222 
ADCP,ioos:station:NOAA.NDBC:WDEL1:1,2010-03-10T20:30:00Z,28.6620,-89.5510,17.8,11111222 
ADCP,ioos:station:NOAA.NDBC:WDEL1:1,2010-03-10T21:30:00Z,28.6620,-89.5510,17.8,11111222 
ADCP,ioos:station:NOAA.NDBC:WDEL1:1,2010-03-10T22:30:00Z,28.6620,-89.5510,17.9,11111222 
ADCP,ioos:station:NOAA.NDBC:WDEL1:1,2010-03-10T23:30:00Z,28.6620,-89.5510,18.0,11111222 
ADCP,ioos:station:NOAA.NDBC:WDEL1:1,2010-03-11T00:30:00Z,28.6620,-89.5510,18.0,11111222 
ADCP,ioos:station:NOAA.NDBC:WDEL1:1,2010-03-11T01:30:00Z,28.6620,-89.5510,18.0,11111222 
ADCP,ioos:station:NOAA.NDBC:WDEL1:1,2010-03-11T02:30:00Z,28.6620,-89.5510,18.0,11111222 
ADCP,ioos:station:NOAA.NDBC:WDEL1:1,2010-03-11T03:30:00Z,28.6620,-89.5510,18.0,11111222 
ADCP,ioos:station:NOAA.NDBC:WDEL1:1,2010-03-11T04:30:00Z,28.6620,-89.5510,18.3,11111222 
ADCP,ioos:station:NOAA.NDBC:WDEL1:1,2010-03-11T05:30:00Z,28.6620,-89.5510,18.4,11111222 
ADCP,ioos:station:NOAA.NDBC:WDEL1:1,2010-03-11T06:30:00Z,28.6620,-89.5510,18.8,11111222 
ADCP,ioos:station:NOAA.NDBC:WDEL1:1,2010-03-11T07:30:00Z,28.6620,-89.5510,18.6,11111222 
ADCP,ioos:station:NOAA.NDBC:WDEL1:1,2010-03-11T08:30:00Z,28.6620,-89.5510,18.7,11111222 
ADCP,ioos:station:NOAA.NDBC:WDEL1:1,2010-03-11T09:30:00Z,28.6620,-89.5510,18.4,11111222 
ADCP,ioos:station:NOAA.NDBC:WDEL1:1,2010-03-11T10:30:00Z,28.6620,-89.5510,18.0,11111222 
ADCP,ioos:station:NOAA.NDBC:WDEL1:1,2010-03-11T11:30:00Z,28.6620,-89.5510,18.1,11111222 
ADCP,ioos:station:NOAA.NDBC:WDEL1:1,2010-03-11T12:30:00Z,28.6620,-89.5510,17.8,11111222 
ADCP,ioos:station:NOAA.NDBC:WDEL1:1,2010-03-11T13:30:00Z,28.6620,-89.5510,18.3,11111222 
ADCP,ioos:station:NOAA.NDBC:WDEL1:1,2010-03-11T14:30:00Z,28.6620,-89.5510,18.0,11111222 
ADCP,ioos:station:NOAA.NDBC:WDEL1:1,2010-03-11T15:30:00Z,28.6620,-89.5510,17.6,11111222 
ADCP,ioos:station:NOAA.NDBC:WDEL1:1,2010-03-11T16:30:00Z,28.6620,-89.5510,15.6,11111222 
ADCP,ioos:station:NOAA.NDBC:WDEL1:1,2010-03-11T17:30:00Z,28.6620,-89.5510,16.8,11111222 
ADCP,ioos:station:NOAA.NDBC:WDEL1:1,2010-03-11T18:30:00Z,28.6620,-89.5510,17.0,11111222 
ADCP,ioos:station:NOAA.NDBC:WDEL1:1,2010-03-11T19:30:00Z,28.6620,-89.5510,16.1,11111222 
ADCP,ioos:station:NOAA.NDBC:WDEL1:1,2010-03-11T20:30:00Z,28.6620,-89.5510,16.0,11111222 
ADCP,ioos:station:NOAA.NDBC:WDEL1:1,2010-03-11T21:30:00Z,28.6620,-89.5510,16.7,11111222 
ADCP,ioos:station:NOAA.NDBC:WDEL1:1,2010-03-11T22:30:00Z,28.6620,-89.5510,16.0,11111222 
ADCP,ioos:station:NOAA.NDBC:WDEL1:1,2010-03-11T23:30:00Z,28.6620,-89.5510,16.4,11111222 
ADCP,ioos:station:NOAA.NDBC:WDEL1:1,2010-03-12T00:30:00Z,28.6620,-89.5510,17.6,11111222 
ADCP,ioos:station:NOAA.NDBC:WDEL1:1,2010-03-12T01:30:00Z,28.6620,-89.5510,17.5,11111222 
ADCP,ioos:station:NOAA.NDBC:WDEL1:1,2010-03-12T02:30:00Z,28.6620,-89.5510,17.5,11111222 
ADCP,ioos:station:NOAA.NDBC:WDEL1:1,2010-03-12T03:30:00Z,28.6620,-89.5510,17.4,11111222 
ADCP,ioos:station:NOAA.NDBC:WDEL1:1,2010-03-12T04:30:00Z,28.6620,-89.5510,17.1,11111222 
ADCP,ioos:station:NOAA.NDBC:WDEL1:1,2010-03-12T05:30:00Z,28.6620,-89.5510,16.7,11111222 